Oak Harbor, WA

4:15 PM PDT on July 26, 2016 (GMT -0700)
Whidbey Island Naval Air Station

Weather History for KNUW - October, 2012

Change the Weather History Date:

Monday, October 15, 2012

  Actual Average Record
Temperature  
Mean Temperature 53 °F -  
Max Temperature 60 °F 55 °F 61 °F (1997)
Min Temperature 46 °F 41 °F 33 °F (2008)
Degree Days  
Heating Degree Days 12    
Growing Degree Days 3 (Base 50)    
Moisture  
Dew Point 51 °F    
Average Humidity 87    
Maximum Humidity 96    
Minimum Humidity 77    
Precipitation  
Precipitation 0.16 in - - ()
Sea Level Pressure  
Sea Level Pressure 29.77 in    
Wind  
Wind Speed 9 mph (SSE)    
Max Wind Speed 26 mph    
Max Gust Speed 41 mph    
Visibility 8 miles    
Events Fog , Rain    
Averages and records for this station are not official NWS values.
T = Trace of Precipitation, MM = Missing Value Source: NWS Daily Summary

Daily Weather History Graph

Daily Weather History Graph

Search for Another Location

Airport or City:

Trip Planner

Search our weather history database for the weather conditions in past years. The results will help you decide how hot, cold, wet, or windy it might be!

Date:

Astronomy

Oct. 15, 2012 Rise Set
Actual Time 7:31 AM PDT 6:20 PM PDT
Civil Twilight 6:59 AM PDT 6:51 PM PDT
Nautical Twilight 6:23 AM PDT 7:28 PM PDT
Astronomical Twilight 5:47 AM PDT 8:04 PM PDT
Moon 7:53 AM PDT (10/15) 6:16 PM PDT (10/15)
Length of Visible Light 11h 52m
Length of Day
10h 49m
New Moon, 0% of the Moon is Illuminated
Oct 15
New Moon
Oct 21
First Quarter
Oct 29
Full
Nov 6
Last Quarter
Nov 13
New

Hourly Weather History & Observations

Time (PDT) Temp. Windchill Dew Point Humidity Pressure Visibility Wind Dir Wind Speed Gust Speed Precip Events Conditions
12:56 AM 53.1 °F - 50.0 °F 89% 29.89 in 10.0 mi SSW 4.6 mph - N/A   Overcast
1:56 AM 54.0 °F - 50.0 °F 86% 29.90 in 10.0 mi SW 9.2 mph - N/A   Overcast
2:56 AM 52.0 °F - 48.9 °F 89% 29.91 in 10.0 mi SW 4.6 mph - N/A   Mostly Cloudy
3:56 AM 51.1 °F - 48.0 °F 89% 29.90 in 6.0 mi Calm Calm - N/A   Mostly Cloudy
4:56 AM 51.1 °F - 48.0 °F 89% 29.93 in 1.0 mi SW 8.1 mph - N/A   Overcast
5:56 AM 50.0 °F - 48.0 °F 93% 29.94 in 1.0 mi Calm Calm - N/A   Mostly Cloudy
6:30 AM 48.2 °F - 44.6 °F 87% 29.93 in 1.0 mi Calm Calm - N/A   Mist
6:46 AM 46.4 °F - 44.6 °F 93% 29.93 in 2.5 mi Calm Calm - N/A   Mostly Cloudy
6:56 AM 46.0 °F 43.9 °F 44.1 °F 93% 29.94 in 3.0 mi SE 4.6 mph - N/A Fog Patches of Fog
7:56 AM 46.0 °F 43.1 °F 44.1 °F 93% 29.94 in 5.0 mi ESE 5.8 mph - N/A Fog Patches of Fog
8:56 AM 51.1 °F - 50.0 °F 96% 29.95 in 7.0 mi SE 6.9 mph - N/A Fog Patches of Fog
9:18 AM 51.8 °F - 50.0 °F 94% 29.94 in 7.0 mi ESE 4.6 mph - N/A   Mostly Cloudy
9:56 AM 55.0 °F - 53.1 °F 93% 29.93 in 7.0 mi East 9.2 mph - N/A   Mostly Cloudy
10:14 AM 53.6 °F - 51.8 °F 94% 29.91 in 8.0 mi ESE 10.4 mph - N/A   Overcast
10:40 AM 55.4 °F - 51.8 °F 88% 29.90 in 8.0 mi ESE 9.2 mph - N/A   Overcast
10:56 AM 54.0 °F - 52.0 °F 93% 29.90 in 8.0 mi ESE 13.8 mph - N/A   Overcast
11:56 AM 55.0 °F - 51.1 °F 86% 29.86 in 10.0 mi SE 12.7 mph 23.0 mph N/A   Overcast
12:56 PM 57.0 °F - 50.0 °F 77% 29.83 in 9.0 mi SE 19.6 mph - N/A   Overcast
1:56 PM 57.0 °F - 50.0 °F 77% 29.74 in 10.0 mi ESE 21.9 mph 31.1 mph N/A   Overcast
2:30 PM 57.2 °F - 51.8 °F 82% 29.71 in 8.0 mi SE 17.3 mph 27.6 mph 0.01 in Rain Light Rain
2:56 PM 57.0 °F - 52.0 °F 83% 29.70 in 8.0 mi SE 16.1 mph - 0.02 in Rain Light Rain
3:56 PM 57.9 °F - 53.1 °F 84% 29.64 in 10.0 mi SE 18.4 mph - 0.01 in Rain Light Rain
4:56 PM 57.9 °F - 54.0 °F 87% 29.60 in 8.0 mi ESE 18.4 mph - 0.11 in Rain Light Rain
5:56 PM 57.9 °F - 54.0 °F 87% 29.52 in 10.0 mi SE 21.9 mph 29.9 mph 0.02 in Rain Light Rain
6:28 PM 59.0 °F - 53.6 °F 82% 29.48 in 10.0 mi SE 26.5 mph 36.8 mph 0.00 in   Overcast
6:56 PM 59.0 °F - 55.0 °F 87% 29.49 in 10.0 mi SE 26.5 mph 41.4 mph 0.00 in   Mostly Cloudy
7:56 PM 60.1 °F - 55.9 °F 86% 29.50 in 10.0 mi SSE 25.3 mph 32.2 mph N/A   Overcast
8:56 PM 60.1 °F - 55.9 °F 86% 29.51 in 10.0 mi SSE 12.7 mph - N/A   Overcast
9:36 PM 60.8 °F - 55.4 °F 82% 29.52 in 9.0 mi SSW 5.8 mph - 0.00 in Rain Light Rain
9:56 PM 55.9 °F - 52.0 °F 87% 29.55 in 9.0 mi SW 6.9 mph - 0.00 in Rain Light Rain
10:56 PM 55.0 °F - 51.1 °F 86% 29.56 in 10.0 mi West 10.4 mph 16.1 mph 0.00 in   Mostly Cloudy
11:56 PM 55.0 °F - 48.9 °F 80% 29.59 in 10.0 mi West 13.8 mph 24.2 mph N/A   Mostly Cloudy